N8IFU Weather Reports


time (UTC)temp
C
wind
direction
speed
KPH
gust
KPH
rain 1hr
cm
rain 24hr
cm
rain mn
cm
humidity
%
barometer
mb
20260502151547 5 267 6.4 16.1 0.00 0.00 0.00 51 1017.3
20260502123041 2 252 1.6 6.4 0.00 0.03 0.00 82 1017.3
20260502121549 1 0 1.6 6.4 0.00 0.03 0.00 85 1017.2
20260502114555 1 263 1.6 3.2 0.00 0.03 0.00 91 1017.1
20260502113045 0 283 0.0 3.2 0.00 0.03 0.00 92 1017.0
20260502111559 0 257 0.0 1.6 0.00 0.03 0.00 92 1016.8
20260502110050 -1 0 0.0 0.0 0.00 0.03 0.00 88 1016.7
20260502104552 -1 0 0.0 0.0 0.00 0.03 0.00 88 1016.6
20260502103046 0 0 0.0 0.0 0.00 0.03 0.00 87 1016.6
20260502101550 0 0 0.0 0.0 0.00 0.03 0.00 87 1016.6
20260502100104 0 0 0.0 0.0 0.00 0.03 0.00 86 1016.4
20260502070046 2 102 0.0 4.8 0.00 0.03 0.00 83 1015.9
20260502064600 2 108 0.0 3.2 0.00 0.03 0.00 82 1016.0
20260502063042 2 107 0.0 1.6 0.00 0.03 0.00 82 1016.2
20260502061547 2 0 0.0 0.0 0.00 0.03 0.00 81 1016.3
20260502060053 2 0 0.0 1.6 0.00 0.03 0.00 80 1016.4
20260502054547 2 0 0.0 1.6 0.00 0.03 0.00 80 1016.4
20260502053044 2 0 0.0 1.6 0.00 0.03 0.00 79 1016.4
20260502051600 2 124 0.0 3.2 0.00 0.03 0.00 78 1016.4
20260502050044 2 109 0.0 3.2 0.00 0.03 0.00 77 1016.4
20260502044541 3 113 0.0 3.2 0.00 0.03 0.00 77 1016.2
20260502043050 3 106 1.6 4.8 0.00 0.03 0.00 77 1016.0
20260502041547 3 108 1.6 8.0 0.00 0.03 0.00 77 1016.1
20260502040045 3 108 1.6 6.4 0.00 0.03 0.00 76 1015.9
20260502034547 3 100 1.6 9.7 0.00 0.03 0.03 73 1015.9
20260502033050 5 265 1.6 6.4 0.00 0.03 0.03 69 1015.8
20260502031602 5 44 1.6 6.4 0.00 0.03 0.03 66 1015.5
20260502030049 5 285 1.6 4.8 0.00 0.03 0.03 65 1015.6
20260502024554 5 302 3.2 9.7 0.00 0.03 0.03 64 1015.6
20260502023044 5 270 3.2 11.3 0.00 0.03 0.03 65 1015.6
20260502021552 5 270 1.6 9.7 0.00 0.03 0.03 66 1015.5
20260502020103 5 236 0.0 11.3 0.00 0.03 0.03 65 1015.5
20260502014547 5 250 1.6 6.4 0.00 0.03 0.03 67 1015.3
20260502013054 5 245 0.0 6.4 0.00 0.03 0.03 66 1015.2
20260502011551 5 250 0.0 6.4 0.00 0.03 0.03 65 1015.1
20260502010049 6 296 0.0 4.8 0.00 0.03 0.03 65 1014.9
20260502004547 6 280 3.2 11.3 0.00 0.03 0.03 63 1014.9
20260502003045 6 238 1.6 8.0 0.00 0.03 0.03 65 1014.9
20260502001545 6 264 1.6 8.0 0.00 0.03 0.03 65 1014.7
20260502000051 6 262 4.8 9.7 0.00 0.03 0.03 66 1014.5
20260501234557 6 0 3.2 8.0 0.00 0.03 0.03 67 1014.5
20260501233104 6 266 1.6 8.0 0.00 0.03 0.03 65 1014.5
20260501231557 6 262 1.6 8.0 0.00 0.03 0.03 65 1014.3
20260501230049 7 257 3.2 9.7 0.00 0.03 0.03 65 1014.3
20260501224557 7 285 4.8 11.3 0.00 0.03 0.03 66 1014.4
20260501223055 7 256 6.4 12.9 0.00 0.03 0.03 62 1014.4
20260501221550 7 243 3.2 9.7 0.00 0.03 0.03 62 1014.2
20260501220052 7 238 1.6 14.5 0.00 0.03 0.03 62 1014.0
20260501214558 8 288 4.8 9.7 0.00 0.03 0.03 57 1013.8
20260501213051 8 262 3.2 9.7 0.00 0.03 0.03 57 1013.7
20260501211543 8 245 3.2 9.7 0.00 0.03 0.03 56 1013.5
20260501210052 8 237 3.2 8.0 0.00 0.03 0.03 56 1013.6
20260501204545 8 323 4.8 14.5 0.00 0.03 0.03 56 1013.5
20260501203045 8 250 3.2 14.5 0.00 0.03 0.03 52 1013.4
20260501201548 8 232 3.2 12.9 0.00 0.03 0.03 54 1013.4
20260501200043 8 226 3.2 11.3 0.00 0.03 0.03 59 1013.3
20260501194559 8 288 3.2 11.3 0.00 0.03 0.03 59 1013.4
20260501193048 9 313 1.6 6.4 0.00 0.03 0.03 52 1013.2
20260501191547 10 32 1.6 11.3 0.00 0.03 0.03 54 1013.1
20260501190054 9 54 3.2 9.7 0.00 0.03 0.03 55 1013.2
20260501184552 9 244 1.6 8.0 0.00 0.03 0.03 53 1013.0
20260501183049 9 64 3.2 9.7 0.00 0.03 0.03 52 1012.8
20260501181548 9 297 3.2 6.4 0.00 0.03 0.03 54 1012.8
20260501180057 8 263 3.2 6.4 0.00 0.03 0.03 54 1012.8
20260501174601 9 284 1.6 8.0 0.00 0.03 0.03 52 1012.7
20260501173104 8 282 1.6 9.7 0.00 0.03 0.03 55 1012.7
20260501171555 8 204 3.2 8.0 0.00 0.03 0.03 55 1012.8
20260501170053 8 246 1.6 8.0 0.00 0.03 0.03 57 1012.8
20260501164550 8 63 1.6 11.3 0.00 0.03 0.03 61 1012.8
20260501163045 8 0 1.6 6.4 0.00 0.03 0.03 64 1012.8
20260501161552 8 237 4.8 9.7 0.00 0.03 0.03 64 1012.9
20260501160055 8 31 0.0 8.0 0.00 0.03 0.03 68 1012.8